www.pogodaiklimat.ru

Погода и климат >> Архив погоды >> Швеция >> Харстена


ПОГОДА в Харстене

  • Прогноз погоды в Харстене
  • Монитор погоды в Харстене

АРХИВ ПОГОДЫ в Харстене

Время (UTC), дата Ветер
(напр.,м/с)
 
Видим.   Явления Облачность Т
(С)
Тd
(С)
f
(%)
Тe
(С)
Тes
(С)
Комфортность P
(гПа)
Po
(гПа)
Тmin
(С)
Tmax
(С)
R
(мм)
R24
(мм)
S
(см)
22 14.09 ЮЗ 6
{12}
45 км 10/10 2000 м
[]
+13.6 +7.8 68 +12 +12 1015.6 1013.5
23 14.09 ЮЗ 6 40 км слаб. дождь 10/8 2000 м
[]
+13.4 +8.1 70 +11 +11 1013.9 1011.8 0.1
00 15.09 ЮЗ 7
{12}
12 км слаб. ливневой дождь 10/10 1500 м
[]
+12.2 +9.2 82 +9 +9 1012.6 1010.4 0.2
01 15.09 ЮЗ 7 11 км слаб. дождь 10/3 1300 м
[]
+11.2 +9.9 92 +8 +8 1010.8 1008.6 0.5
02 15.09 ЮЗ 6
{11}
24 км слаб. дождь 9/3
[]
+11.0 +10.0 94 +8 +8 1008.4 1006.3 0.1
03 15.09 ЮЗ 6 35 км в посл. час дождь {ливн. осадки} 10/10 1410 м
[]
+11.2 +9.7 90 +8 +8 1007.1 1005.0
04 15.09 ЮЗ 7
{11}
35 км слаб. ливневой дождь 10/10 1500 м
[]
+12.3 +8.3 77 +9 +9 1004.9 1002.8 0.0
05 15.09 ЮЗ 7
{12}
11 км слаб. дождь 10/10 1000 м
[]
+12.0 +9.5 85 +9 +9 1003.3 1001.2 0.3
06 15.09 ЮЗ 8 13 км слаб. дождь 10/10 1500 м
[]
+11.7 +10.4 92 +8 +8 1001.2 999.1 +11.0 0.5
07 15.09 ЮЗ 7
{13}
30 км в посл. час дождь {метель} 6/1 750 м
[]
+12.1 +10.9 92 +9 +9 1000.4 998.3 0.1
08 15.09 ЮЗ 6
{13}
50 км слаб. ливневой дождь 10/6 800 м
[]
+13.6 +11.8 89 +11 +12 999.3 997.2 0.0
09 15.09 З 7
{13}
50 км в посл. час дождь {ливн. осадки} 9/9 1000 м
[]
+14.8 +10.8 77 +13 +13 998.9 996.8 0.0
10 15.09 З 10
{19}
35 км {ливн. осадки, дождь} 1/1 1300 м
[]
+15.5 +5.6 52 +13 +14 999.3 997.2
11 15.09 З 7 35 км {ливн. осадки, дождь} 3/0
[]
+16.0 +6.9 55 +15 +16 999.2 997.1
12 15.09 З 8
{19}
40 км {ливн. осадки, дождь} 4/4 1500 м
[]
+16.1 +4.3 45 +15 +15 999.2 997.1
13 15.09 З 8 40 км 3/1 1500 м
[]
+16.3 +4.9 47 +15 +16 998.7 996.7
14 15.09 З 8
{18}
40 км 3/1 1500 м
[]
+15.8 +4.7 48 +14 +15 998.8 996.7
15 15.09 З 9
{17}
35 км ясно +15.3 +3.7 46 +13 +14 998.6 996.5
16 15.09 З 9
{18}
25 км ясно +14.7 +4.1 49 +13 +13 998.0 995.9
17 15.09 З 8 22 км ясно +13.9 +4.8 54 +12 +12 997.9 995.8
18 15.09 З 8
{17}
22 км ясно +13.4 +5.5 59 +11 +11 997.6 995.5 +11.6 +16.9
19 15.09 З 8
{16}
23 км ясно +13.1 +5.9 62 +10 +10 997.4 995.3
20 15.09 З 7 24 км ясно +13.0 +6.2 63 +11 +11 997.4 995.3
21 15.09 З 7
{16}
29 км ясно +12.8 +6.4 65 +10 +10 997.0 994.9
22 15.09 З 7 30 км ясно +12.8 +6.4 65 +10 +10 997.5 995.4
23 15.09 З 8
{16}
40 км ясно +13.0 +6.4 64 +10 +10 997.9 995.8
00 16.09 З 7
{16}
45 км ясно +12.8 +6.2 64 +10 +10 998.1 996.0
01 16.09 З 8
{18}
50 км ясно +12.9 +5.7 62 +10 +10 998.4 996.3
02 16.09 З 8
{18}
50 км ясно +12.7 +5.5 62 +10 +10 999.1 997.0
03 16.09 З 7 50 км ясно +12.5 +5.0 60 +10 +10 999.8 997.7
04 16.09 З 8
{16}
50 км ясно +12.2 +4.7 60 +9 +9 1000.1 998.0
05 16.09 З 7
{15}
50 км ясно +11.9 +4.1 59 +9 +9 1000.6 998.5
06 16.09 З 8
{14}
50 км ясно +12.2 +3.2 54 +9 +9 1000.6 998.5 +11.8 +13.5
07 16.09 З 7
{15}
45 км ясно +12.5 +2.4 50 +10 +10 1001.1 999.0
08 16.09 З 6
{16}
40 км ясно +13.3 +1.9 46 +11 +13 1001.5 999.3
09 16.09 З 6 40 км ясно +13.8 +1.4 43 +12 +14 1001.8 999.7
10 16.09 З 8
{15}
45 км ясно +14.1 +0.7 40 +12 +13 1002.1 1000.0
11 16.09 З 8
{14}
50 км ясно +14.6 +0.9 39 +13 +14 1002.3 1000.2
12 16.09 З 7 40 км ясно +15.2 +1.0 38 +14 +15 1002.4 1000.3
13 16.09 СЗ 6
{14}
50 км 8/5 1500 м
[]
+15.1 +1.2 39 +14 +14 1002.8 1000.7
14 16.09 СЗ 8
{15}
50 км 5/5 1500 м
[]
+14.6 +1.5 41 +13 +13 1003.2 1001.1
15 16.09 З 7 50 км ясно +13.8 +1.9 44 +12 +12 1003.4 1001.3
16 16.09 СЗ 7
{16}
50 км 5/4 1500 м
[]
+12.9 +2.5 49 +11 +11 1004.0 1001.9
17 16.09 СЗ 6 50 км 1/0
[]
+11.3 +3.3 58 +9 +9 1004.5 1002.4
18 16.09 СЗ 6
{14}
50 км 10/0 2000 м
[]
+10.9 +3.5 60 +8 +8 1004.6 1002.4 +10.9 +15.5
19 16.09 З 4
{14}
50 км 10/10
[]
+10.5 +3.6 62 +8 +8 1004.9 1002.8
20 16.09 З 3
{9}
50 км 10/10
[]
+10.1 +4.4 68 +8 +8 1004.9 1002.7
21 16.09 ЮЗ 3
{8}
50 км 10/0
[]
+9.8 +4.4 69 +8 +8 1004.4 1002.3
22 16.09 ЮЗ 3
{5}
50 км 10/10
[]
+9.5 +4.0 69 +7 +7 1003.8 1001.6
23 16.09 З 4
{8}
50 км 5/0
[]
+9.2 +4.4 72 +6 +6 1003.4 1001.2
00 17.09 З 3 50 км ясно +8.9 +4.9 76 +7 +7 1003.1 1000.9
01 17.09 З 3
{7}
50 км ясно +8.7 +5.5 80 +6 +6 1002.6 1000.4
02 17.09 З 3
{7}
50 км ясно +8.3 +5.6 83 +6 +6 1002.1 1000.0
03 17.09 З 4 45 км ясно +8.3 +6.0 85 +5 +5 1001.4 999.2
04 17.09 З 3
{6}
30 км ясно +8.3 +6.5 88 +6 +6 1000.6 998.4
05 17.09 ЮЗ 2
{7}
35 км 1/1
[]
+8.3 +6.6 89 +6 +6 1000.0 997.8
06 17.09 З 2 30 км 10/0
[]
+8.8 +6.6 86 +7 +7 999.3 997.2 +8.0
07 17.09 З 3
{6}
40 км 10/10
[]
+9.1 +6.8 86 +7 +7 998.9 996.7
08 17.09 З 2 35 км в посл. час дождь {ливн. осадки} 10/8 1170 м
[]
+10.1 +7.1 82 +9 +9 998.3 996.2 0.1
09 17.09 З 1
{5}
21 км ливневой дождь 10/10 450 м
[]
+9.9 +8.2 89 +9 +9 997.8 995.7 0.1
10 17.09 С 3
{6}
30 км слаб. ливневой дождь 10/9 720 м
[]
+8.9 +7.4 90 +6 +7 997.7 995.6 0.3
11 17.09 СЗ 4
{7}
40 км в посл. час дождь {ливн. осадки} 10/9 1080 м
[]
+10.1 +7.1 82 +7 +8 997.5 995.3 0.0
12 17.09 С 3
{7}
45 км {ливн. осадки, дождь} 10/10 240 м
[]
+9.6 +7.0 84 +7 +7 997.8 995.7
13 17.09 С 3 30 км слаб. дождь 10/4 800 м
[]
+8.9 +6.6 85 +6 +7 998.0 995.8
14 17.09 СЗ 4
{7}
50 км в посл. час дождь {метель} 10/5 2000 м
[]
+8.7 +6.2 84 +6 +6 998.4 996.3 0.1
15 17.09 СЗ 4 50 км {дождь, метель} 10/0
[]
+9.6 +6.5 81 +7 +7 998.9 996.7
16 17.09 С 6
{9}
50 км {дождь, метель} 6/3 570 м
[]
+9.5 +6.4 81 +6 +6 999.9 997.8
17 17.09 СЗ 4 50 км в посл. час дождь {ливн. осадки} 9/3 1410 м
[]
+8.7 +6.1 84 +6 +6 1000.7 998.5
18 17.09 СЗ 4
{9}
50 км {ливн. осадки, дождь} 4/4 1380 м
[]
+8.2 +6.5 89 +5 +5 1001.4 999.3 +8.0 +10.7
19 17.09 С 6
{10}
50 км ясно +9.4 +5.2 75 +6 +6 1002.3 1000.2
20 17.09 СЗ 6 50 км ясно +9.2 +4.7 73 +6 +6 1003.2 1001.1
21 17.09 СЗ 4
{9}
50 км ясно +8.7 +5.0 78 +6 +6 1004.0 1001.8
22 17.09 СЗ 4
{9}
50 км ясно +8.1 +5.3 82 +5 +5 1004.6 1002.4
23 17.09 СЗ 5
{9}
50 км 3/0
[]
+8.3 +4.4 76 +5 +5 1005.2 1003.0
00 18.09 СЗ 6
{10}
50 км ясно +8.0 +4.6 79 +4 +4 1005.5 1003.4
01 18.09 СЗ 5 50 км ясно +6.7 +4.5 86 +3 +3 1006.0 1003.9
02 18.09 СЗ 5
{9}
50 км 10/10 1230 м
[]
+7.4 +4.7 83 +3 +3 1006.5 1004.4
03 18.09 СЗ 6
{10}
50 км 6/0
[]
+7.7 +4.5 80 +4 +4 1007.0 1004.8
04 18.09 СЗ 6
{10}
50 км ясно +7.4 +4.3 81 +3 +3 1007.5 1005.3
05 18.09 СЗ 6
{10}
50 км ясно +7.1 +4.2 82 +3 +3 1008.1 1006.0
06 18.09 СЗ 5 50 км 1/0
[]
+6.6 +4.3 85 +2 +3 1008.9 1006.8 +6.6 +9.5
07 18.09 СЗ 6
{11}
50 км ясно +8.2 +4.3 76 +4 +5 1009.4 1007.2
08 18.09 СЗ 6
{11}
50 км ясно +9.0 +4.6 74 +5 +7 1009.9 1007.7
09 18.09 СЗ 6 50 км ясно +10.4 +4.7 68 +7 +9 1010.4 1008.2
10 18.09 СЗ 6
{10}
50 км ясно +11.4 +4.8 64 +9 +11 1010.9 1008.7
11 18.09 СЗ 6
{10}
50 км 1/1 1020 м
[]
+12.2 +4.7 60 +10 +12 1011.3 1009.2
12 18.09 СЗ 6
{10}
50 км 8/8 1110 м
[]
+12.5 +4.0 56 +10 +11 1011.9 1009.8
13 18.09 СЗ 5
{11}
50 км 9/5 1260 м
[]
+12.6 +3.7 55 +11 +11 1012.4 1010.2
14 18.09 СЗ 4 50 км 8/4 1350 м
[]
+13.2 +4.1 54 +12 +13 1012.8 1010.6
15 18.09 СЗ 6
{10}
50 км 9/9 1320 м
[]
+11.9 +3.9 58 +9 +9 1013.6 1011.4
16 18.09 СЗ 3 50 км 10/3 1500 м
[]
+11.3 +4.8 64 +10 +10 1014.0 1011.9
17 18.09 СЗ 4
{9}
50 км в посл. час дождь {ливн. осадки} 10/9 1500 м
[]
+11.1 +3.8 61 +9 +9 1014.6 1012.4 0.0
18 18.09 СЗ 2 50 км {ливн. осадки, дождь} 4/0
[]
+10.3 +4.6 68 +9 +9 1015.2 1013.0 +13.8
19 18.09 СЗ 3
{6}
50 км ясно +9.8 +4.3 69 +8 +8 1015.5 1013.4
20 18.09 З 3
{5}
50 км ясно +9.3 +3.5 67 +7 +7 1015.8 1013.6
21 18.09 З 3
{5}
50 км ясно +8.9 +3.3 68 +7 +7 1015.9 1013.7
22 18.09 З 3 50 км ясно +8.1 +3.8 74 +6 +6 1016.0 1013.8
23 18.09 З 4
{6}
50 км ясно +8.1 +3.6 73 +5 +5 1016.1 1013.9
00 19.09 СЗ 3
{7}
50 км ясно +7.8 +3.8 76 +5 +5 1016.5 1014.3
01 19.09 СЗ 3 50 км ясно +7.5 +3.7 77 +5 +5 1016.6 1014.5
02 19.09 СЗ 4
{7}
50 км ясно +7.5 +3.6 76 +4 +4 1016.8 1014.6
03 19.09 СЗ 5
{8}
50 км ясно +7.2 +3.5 77 +3 +3 1017.2 1015.0
04 19.09 СЗ 6
{10}
50 км ясно +7.4 +3.5 76 +3 +3 1017.6 1015.4
05 19.09 СЗ 5
{11}
50 км 1/0
[]
+6.9 +3.5 79 +3 +3 1018.2 1016.0
06 19.09 СЗ 5 50 км ясно +7.5 +3.4 75 +4 +4 1018.7 1016.5 +6.8
07 19.09 СЗ 7
{12}
50 км ясно +8.1 +2.9 70 +4 +4 1019.2 1017.0
08 19.09 СЗ 6
{12}
45 км ясно +9.0 +2.6 64 +5 +7 1019.9 1017.8
09 19.09 СЗ 5 45 км ясно +9.8 +2.3 60 +7 +9 1020.5 1018.3
10 19.09 СЗ 5
{12}
50 км ясно +10.4 +2.3 57 +8 +11 1020.9 1018.7
11 19.09 СЗ 5
{10}
50 км 3/3 1110 м
[]
+11.0 +2.3 55 +9 +11 1021.1 1019.0
12 19.09 СЗ 5
{10}
50 км 5/5 1200 м
[]
+11.7 +2.0 51 +10 +11 1021.2 1019.1
13 19.09 СЗ 5 50 км 8/8 1260 м
[]
+12.2 +2.6 52 +10 +11 1021.4 1019.3
14 19.09 СЗ 6
{10}
50 км 4/3 1440 м
[]
+12.0 +1.1 47 +10 +10 1021.6 1019.4
15 19.09 СЗ 5 50 км 8/8 1500 м
[]
+12.2 +1.1 47 +10 +10 1021.8 1019.7
16 19.09 СЗ 5
{10}
50 км 8/4 1500 м
[]
+11.6 +0.3 46 +9 +10 1022.1 1019.9
17 19.09 СЗ 4
{10}
50 км 3/0
[]
+10.8 +0.3 48 +9 +9 1022.5 1020.3
18 19.09 СЗ 2
{8}
50 км ясно +9.9 +1.0 54 +9 +9 1022.6 1020.4 +12.5
19 19.09 З 3
{7}
50 км ясно +9.0 +1.2 58 +7 +7 1022.7 1020.6
20 19.09 З 3
{6}
50 км 1/1
[]
+8.6 +2.1 64 +6 +6 1022.8 1020.6
21 19.09 З 3 50 км 1/0
[]
+8.2 +2.7 68 +6 +6 1023.0 1020.8
22 19.09 СЗ 3
{6}
50 км ясно +7.9 +2.9 71 +5 +5 1023.2 1021.0
23 19.09 З 3
{5}
50 км ясно +7.8 +2.9 71 +5 +5 1023.1 1020.9
00 20.09 З 3
{5}
50 км ясно +8.0 +3.1 71 +5 +5 1022.9 1020.7
01 20.09 СЗ 2 50 км 5/0
[]
+7.6 +3.5 75 +6 +6 1022.5 1020.3
02 20.09 З 2
{4}
50 км 10/10
[]
+7.2 +4.0 80 +5 +5 1022.2 1020.0
03 20.09 З 2
{4}
50 км 10/0
[]
+6.9 +4.2 83 +5 +5 1022.0 1019.8
04 20.09 З 3
{5}
50 км 4/4
[]
+7.0 +4.3 83 +4 +4 1021.8 1019.6
05 20.09 З 2 50 км ясно +6.8 +4.6 86 +5 +5 1021.3 1019.1
06 20.09 З 2
{5}
50 км 8/0
[]
+7.5 +4.9 84 +5 +6 1021.0 1018.8 +6.8 +9.9
07 20.09 З 2
{6}
50 км 10/5
[]
+8.9 +5.1 77 +7 +8 1021.4 1019.2
08 20.09 З 2 50 км 10/3
[]
+10.2 +4.6 68 +9 +10 1021.1 1018.9
09 20.09 ЮЗ 2
{4}
45 км 10/0
[]
+12.7 +3.8 55 +12 +14 1020.8 1018.6
10 20.09 ЮЗ 2
{5}
45 км 6/1
[]
+13.4 +4.7 56 +13 +17 1020.2 1018.0
11 20.09 Ю 2 50 км 6/3
[]
+14.2 +6.5 60 +14 +17 1019.4 1017.2
12 20.09 Ю 2
{4}
50 км 6/0
[]
+13.0 +7.7 70 +12 +16 1018.7 1016.5
13 20.09 Ю 1
{3}
45 км 9/6
[]
+13.2 +7.5 68 +13 +15 1018.2 1016.1
14 20.09 Ю 1
{4}
50 км 9/5
[]
+12.3 +7.4 72 +12 +13 1017.8 1015.7
15 20.09 Ю 1 50 км 10/10 1410 м
[]
+11.7 +7.9 77 +12 +12 1017.3 1015.1
16 20.09 ЮЗ 2
{3}
50 км 10/3 1500 м
[]
+11.1 +7.9 81 +10 +10 1017.1 1014.9
17 20.09 ЮЗ 2 50 км 10/1 1500 м
[]
+11.1 +8.1 82 +10 +10 1016.6 1014.4
18 20.09 ЮЗ 2
{4}
50 км 10/0 2000 м
[]
+11.3 +8.1 81 +10 +10 1016.3 1014.1 +15.0
19 20.09 ЮЗ 2
{4}
50 км 10/10 1500 м
[]
+13.0 +7.2 68 +12 +12 1016.2 1014.1
20 20.09 З 3
{4}
50 км 10/1 1500 м
[]
+12.9 +7.6 70 +12 +12 1015.9 1013.8
21 20.09 ЮЗ 3
{5}
50 км 10/0
[]
+12.5 +7.9 74 +11 +11 1015.7 1013.5
22 20.09 З 3
{5}
50 км 10/4
[]
+12.1 +8.4 78 +11 +11 1015.5 1013.4
23 20.09 З 3
{6}
50 км 10/10
[]
+12.1 +9.0 81 +11 +11 1015.5 1013.3
00 21.09 З 3
{6}
50 км в посл. час дождь {ливн. осадки} 10/0
[]
+12.0 +9.4 84 +10 +10 1015.2 1013.1 0.0
01 21.09 З 4
{6}
50 км 10/10
[]
+12.2 +9.5 84 +10 +10 1014.9 1012.7
02 21.09 З 4
{7}
50 км 10/10
[]
+12.3 +9.7 84 +10 +10 1014.9 1012.8
03 21.09 З 5
{8}
50 км 9/0
[]
+12.2 +9.8 85 +10 +10 1014.7 1012.5
04 21.09 З 3 50 км 3/0
[]
+11.8 +9.8 88 +10 +10 1014.6 1012.5
05 21.09 З 4
{8}
40 км ясно +11.3 +9.8 90 +9 +9 1014.9 1012.7
06 21.09 СЗ 4
{8}
40 км ясно +11.8 +10.0 89 +10 +10 1015.5 1013.3 +11.1 +13.1
07 21.09 З 5 35 км ясно +13.0 +10.1 83 +11 +12 1015.6 1013.5
08 21.09 СЗ 5
{8}
45 км ясно +14.4 +9.9 74 +13 +14 1015.9 1013.8
09 21.09 СЗ 5
{8}
35 км ясно +15.3 +9.2 67 +14 +16 1015.9 1013.8
10 21.09 СЗ 3 40 км ясно +17.1 +9.0 59 +17 +22 1016.0 1013.9
11 21.09 СЗ 4
{8}
40 км ясно +18.0 +7.2 49 +18 +22 1015.8 1013.7
12 21.09 СЗ 4
{7}
35 км ясно +18.8 +7.3 47 +19 +23 1015.5 1013.4
13 21.09 СЗ 3
{8}
50 км ясно +19.6 +6.9 44 +21 +24 комфорт 1015.6 1013.5
14 21.09 СЗ 3 50 км ясно +19.9 +7.5 45 +21 +23 комфорт 1015.6 1013.5
15 21.09 СЗ 5
{8}
50 км ясно +20.2 +5.6 38 +21 +21 комфорт 1015.3 1013.2
16 21.09 СЗ 2 50 км ясно +19.1 +6.6 44 +20 +20 1015.1 1013.0
17 21.09 З 2
{6}
50 км ясно +17.8 +7.2 50 +18 +18 1015.5 1013.4
18 21.09 З 3
{5}
50 км ясно +17.0 +7.6 54 +17 +17 1015.7 1013.6 +20.8
19 21.09 З 2
{5}
50 км ясно +15.9 +7.3 57 +16 +16 1015.8 1013.7
20 21.09 З 2 50 км ясно +14.0 +7.4 64 +14 +14 1015.8 1013.7
21 21.09 З 2
{4}
50 км ясно +13.3 +7.1 66 +13 +13 1015.6 1013.5
22 21.09 З 2
{4}
50 км ясно +12.9 +7.2 68 +12 +12 1015.4 1013.3
23 21.09 З 2 50 км ясно +12.6 +7.2 70 +12 +12 1015.0 1012.8

 

Местоположение метеостанции Харстена (Швеция): широта 58.25 долгота 17.02 высота над уровнем моря 18 м.

В архиве по умолчанию представлена погода в Харстене за последнюю неделю. Архивные данные за месяц целиком и за предыдущие месяцы, начиная с января 2011 года, Вы можете получить, выбрав интересующий диапазон дат из раскрывающегося списка и нажав кнопку "Ввод!".


*Определитесь, кто Вы:
робот инопланетянин человек

Внимание! Время в таблицах - всемирное. Для получения местного времени необходимо прибавить поправку, которая равна 1 ч.

Смотрите также архив погоды в соседних городах и на ближайших метеорологических станциях:

Погода в Норрчёпинге (Швеция) (63 км)
Погода в Кольмаардене (Швеция) (63 км)
Погода в Гладхаммаре (Швеция) (69 км)
Погода на Маяке Landsort (Швеция) (74 км)
Погода в Хорне (Швеция) (79 км)
Погода в Линчёпинге (Швеция) (89 км)
Погода во Флоде (Швеция) (96 км)
Погода в Оландс Норра Удде (Швеция) (98 км)
Погода в Висби (Швеция) (102 км)
Погода в Кварне (Швеция) (103 км)

Пояснения к столбцам:

Ветер - указаны скорость ветра в м/с - средняя за 10 мин, порывы в срок и между сроками (в фигурных скобках) и направление, откуда дует ветер: С - северный, СВ - северо-восточный, В - восточный, ЮВ - юго-восточный, Ю - южный, ЮЗ - юго-западный, З - западный, СЗ - северо-западный.
Видимость - горизонтальная дальность видимости в метрах или километрах. При видимости от 1 до 10 км при отсутствии осадков обычно наблюдается дымка, при ухудшении видимости до 1 км и менее - туман. В сухую погоду видимость может ухудшаться дымом, пылью или мглою.
Явления - указаны атмосферные явления, наблюдавшиеся в срок или в последний час перед сроком; фигурными скобками обозначены явления, наблюдавшиеся между сроками (за 1-3 часа до срока); квадратными скобками обозначены град или гололедные отложения с указанием их диаметра в мм.
Облачность - указаны через наклонную черту общая и нижняя облачность в баллах и высота нижней границы облаков в метрах; квадратными скобками обозначены формы облаков: Ci - перистые, Cs - перисто-слоистые, Cc - перисто-кучевые, Ac - высококучевые, As - высокослоистые, Sc - слоисто-кучевые, Ns - слоисто-дождевые, Cu - кучевые, Cb - кучево-дождевые. Подробнее классификацию облаков см. в Атласе облаков (PDF).
T - Температура воздуха - температура, измеренная на высоте 2 м над землей.
Td - Температура точки росы - температура, при понижении до которой содержащийся в воздухе водяной пар достигнет насыщения.
f - Относительная влажность воздуха - влажноcть воздуха, измеренная на высоте 2 м над землей.
Te - Эффективная температура - температура, которую ощущает одетый по сезону человек в тени. Характеристика душности погоды. При расчете учитывается влияние влажности воздуха и скорости ветра на теплоощущения человека.
Tes - Эффективная температура на солнце - температура, которую ощущает человек, с поправкой на солнечный нагрев. Характеристика знойности погоды. Зависит от высоты солнца над горизонтом, облачности и скорости ветра. Ночью, в пасмурную погоду, а также при ветре 12 м/с и более поправка равна нулю.
P - Атмосферное давление - приведенное к уровню моря атмосферное давление.
Po - Атмосферное давление - измеренное на уровне метеостанции атмосферное давление.
Tmin - Минимальная температура - минимум температуры воздуха на высоте 2 м над землей.
Tmax - Максимальная температура - максимум температуры воздуха на высоте 2 м над землей.
R - Количество осадков - Количество выпавших осадков за период времени, мм. При наведении курсора мыши на число - период времени, за который выпало указанное количество осадков.
R24 - Количество осадков - Количество выпавших осадков за 24 часа, мм.
S - Снежный покров - Высота снежного покрова, см. При наведении курсора мыши на число - состояние снежного покрова и степень покрытия местности в баллах.